When you browse on this site, cookies collect data to enhance your experience and personalize the content and advertising you see.
Visit our Privacy Policy to learn more. By continuing to use the site, you agree to this use of cookies and data.
  • In Italy
  • List of Countries
  • For 7 days
  • Water Temperature
  • Satellite Maps
  • Weather Map
  • Weather Widgets
  • user-avatar
    Login

    Hourly Weather Baranovichi

    Today, 19 April, Friday

    Time Temperature Precipitation Wind Pressure Humidity
    00:00 +8°C° 0 mm 3 mps 756 mmHg 65%
    01:00 +7°C° 0 mm 3 mps 756 mmHg 67%
    02:00 +7°C° 0 mm 3 mps 756 mmHg 69%
    03:00 +5°C° 0 mm 3 mps 756 mmHg 72%
    04:00 +5°C° 0 mm 3 mps 756 mmHg 74%
    05:00 +5°C° 0 mm 2 mps 757 mmHg 76%
    06:00 +5°C° 0 mm 3 mps 757 mmHg 71%
    07:00 +8°C° 0 mm 3 mps 757 mmHg 65%
    08:00 +9°C° 0 mm 3 mps 757 mmHg 59%
    09:00 +10°C° 0 mm 3 mps 757 mmHg 54%
    10:00 +12°C° 0 mm 4 mps 757 mmHg 48%
    11:00 +13°C° 0 mm 4 mps 757 mmHg 43%
    12:00 +14°C° 0 mm 4 mps 757 mmHg 41%
    13:00 +14°C° 0 mm 4 mps 757 mmHg 39%
    14:00 +16°C° 0 mm 3 mps 757 mmHg 37%
    15:00 +16°C° 0 mm 3 mps 757 mmHg 38%
    16:00 +16°C° 0 mm 3 mps 757 mmHg 38%
    17:00 +16°C° 0 mm 3 mps 757 mmHg 39%
    18:00 +14°C° 0 mm 2 mps 757 mmHg 44%
    19:00 +12°C° 0 mm 2 mps 757 mmHg 50%
    20:00 +10°C° 0 mm 1 mps 757 mmHg 55%
    21:00 +10°C° 0 mm 1 mps 757 mmHg 56%
    22:00 +9°C° 0 mm 1 mps 757 mmHg 57%
    23:00 +8°C° 0 mm 1 mps 757 mmHg 58%

    Tomorrow, 20 April, Saturday

    Time Temperature Precipitation Wind Pressure Humidity
    00:00 +8°C° 0 mm 1 mps 756 mmHg 58%
    01:00 +8°C° 0 mm 1 mps 756 mmHg 58%
    02:00 +8°C° 0 mm 1 mps 756 mmHg 59%
    03:00 +7°C° 0 mm 1 mps 756 mmHg 60%
    04:00 +7°C° 0 mm 1 mps 756 mmHg 62%
    05:00 +6°C° 0 mm 2 mps 755 mmHg 63%
    06:00 +7°C° 0 mm 2 mps 755 mmHg 63%
    07:00 +8°C° 0 mm 2 mps 755 mmHg 62%
    08:00 +9°C° 0 mm 2 mps 755 mmHg 62%
    09:00 +12°C° 0 mm 2 mps 755 mmHg 56%
    10:00 +12°C° 0 mm 3 mps 754 mmHg 51%
    11:00 +14°C° 0 mm 3 mps 754 mmHg 45%
    12:00 +16°C° 0 mm 3 mps 754 mmHg 43%
    13:00 +16°C° 0 mm 3 mps 753 mmHg 40%
    14:00 +17°C° 0 mm 2 mps 753 mmHg 37%
    15:00 +16°C° 0.1 mm 3 mps 753 mmHg 42%
    16:00 +16°C° 0.1 mm 3 mps 752 mmHg 46%
    17:00 +14°C° 0.1 mm 3 mps 752 mmHg 50%
    18:00 +14°C° 0.1 mm 2 mps 752 mmHg 58%
    19:00 +12°C° 0.1 mm 2 mps 752 mmHg 65%
    20:00 +10°C° 0.1 mm 2 mps 752 mmHg 73%
    21:00 +11°C° 0.1 mm 1 mps 752 mmHg 75%
    22:00 +10°C° 0.1 mm 1 mps 752 mmHg 78%
    23:00 +9°C° 0.1 mm 1 mps 751 mmHg 81%

    Day after tomorrow, 21 April, Sunday

    Time Temperature Precipitation Wind Pressure Humidity
    00:00 +9°C° 0 mm 1 mps 751 mmHg 81%
    01:00 +9°C° 0 mm 1 mps 751 mmHg 82%
    02:00 +8°C° 0 mm 1 mps 751 mmHg 83%
    03:00 +8°C° 0 mm 1 mps 750 mmHg 84%
    04:00 +8°C° 0 mm 1 mps 750 mmHg 85%
    05:00 +7°C° 0 mm 1 mps 750 mmHg 86%
    06:00 +8°C° 0.3 mm 1 mps 750 mmHg 84%
    07:00 +9°C° 0.3 mm 1 mps 750 mmHg 82%
    08:00 +9°C° 0.3 mm 2 mps 750 mmHg 80%
    09:00 +10°C° 0.4 mm 2 mps 749 mmHg 74%
    10:00 +12°C° 0.4 mm 2 mps 749 mmHg 69%
    11:00 +13°C° 0.4 mm 2 mps 749 mmHg 64%
    12:00 +13°C° 0.7 mm 2 mps 749 mmHg 62%
    13:00 +14°C° 0.7 mm 2 mps 749 mmHg 60%
    14:00 +13°C° 0.7 mm 3 mps 749 mmHg 58%
    15:00 +13°C° 0.4 mm 3 mps 749 mmHg 60%
    16:00 +13°C° 0.4 mm 3 mps 749 mmHg 63%
    17:00 +13°C° 0.4 mm 3 mps 748 mmHg 65%
    18:00 +11°C° 0.2 mm 3 mps 749 mmHg 73%
    19:00 +10°C° 0.2 mm 3 mps 749 mmHg 80%
    20:00 +9°C° 0.2 mm 3 mps 749 mmHg 87%
    21:00 +8°C° 0.2 mm 3 mps 749 mmHg 87%
    22:00 +7°C° 0.2 mm 4 mps 750 mmHg 86%
    23:00 +7°C° 0.2 mm 5 mps 750 mmHg 86%

    22 April, Monday

    Time Temperature Precipitation Wind Pressure Humidity
    00:00 +7°C° 0 mm 5 mps 750 mmHg 86%
    01:00 +6°C° 0 mm 5 mps 751 mmHg 86%
    02:00 +6°C° 0 mm 5 mps 751 mmHg 86%
    03:00 +5°C° 0 mm 5 mps 751 mmHg 86%
    04:00 +5°C° 0 mm 5 mps 751 mmHg 86%
    05:00 +3°C° 0 mm 5 mps 752 mmHg 86%
    06:00 +5°C° 0 mm 5 mps 752 mmHg 82%
    07:00 +7°C° 0 mm 5 mps 752 mmHg 79%
    08:00 +8°C° 0 mm 6 mps 753 mmHg 76%
    09:00 +9°C° 0 mm 6 mps 753 mmHg 70%
    10:00 +11°C° 0 mm 6 mps 753 mmHg 65%
    11:00 +14°C° 0 mm 6 mps 754 mmHg 59%
    12:00 +14°C° 0.1 mm 6 mps 754 mmHg 56%
    13:00 +15°C° 0.1 mm 6 mps 754 mmHg 53%
    14:00 +15°C° 0.1 mm 5 mps 754 mmHg 50%
    15:00 +15°C° 0.1 mm 5 mps 754 mmHg 51%
    16:00 +15°C° 0.1 mm 5 mps 754 mmHg 52%
    17:00 +14°C° 0.1 mm 5 mps 754 mmHg 53%
    18:00 +13°C° 0 mm 5 mps 754 mmHg 58%
    19:00 +11°C° 0 mm 4 mps 754 mmHg 63%
    20:00 +10°C° 0 mm 3 mps 755 mmHg 68%
    21:00 +8°C° 0 mm 4 mps 755 mmHg 68%
    22:00 +8°C° 0 mm 4 mps 755 mmHg 68%
    23:00 +7°C° 0 mm 4 mps 756 mmHg 68%

    23 April, Tuesday

    Time Temperature Precipitation Wind Pressure Humidity
    00:00 +7°C° 0 mm 4 mps 756 mmHg 68%
    01:00 +7°C° 0 mm 3 mps 756 mmHg 68%
    02:00 +7°C° 0 mm 3 mps 756 mmHg 68%
    03:00 +5°C° 0 mm 3 mps 756 mmHg 69%
    04:00 +5°C° 0 mm 3 mps 756 mmHg 70%
    05:00 +4°C° 0 mm 3 mps 756 mmHg 71%
    06:00 +6°C° 0 mm 4 mps 756 mmHg 65%
    07:00 +7°C° 0 mm 5 mps 756 mmHg 59%
    08:00 +9°C° 0 mm 5 mps 757 mmHg 54%
    09:00 +10°C° 0 mm 6 mps 757 mmHg 49%
    10:00 +13°C° 0 mm 6 mps 756 mmHg 45%
    11:00 +14°C° 0 mm 7 mps 756 mmHg 41%
    12:00 +14°C° 0 mm 7 mps 756 mmHg 40%
    13:00 +15°C° 0 mm 7 mps 756 mmHg 39%
    14:00 +15°C° 0 mm 7 mps 755 mmHg 39%
    15:00 +15°C° 0 mm 6 mps 755 mmHg 40%
    16:00 +15°C° 0 mm 6 mps 755 mmHg 41%
    17:00 +15°C° 0 mm 6 mps 755 mmHg 43%
    18:00 +13°C° 0 mm 5 mps 755 mmHg 47%
    19:00 +12°C° 0 mm 5 mps 755 mmHg 51%
    20:00 +10°C° 0 mm 4 mps 755 mmHg 56%
    21:00 +10°C° 0 mm 4 mps 755 mmHg 57%
    22:00 +8°C° 0 mm 4 mps 755 mmHg 59%
    23:00 +8°C° 0 mm 4 mps 755 mmHg 60%

    24 April, Wednesday

    Time Temperature Precipitation Wind Pressure Humidity
    00:00 +7°C° 0 mm 4 mps 755 mmHg 62%
    01:00 +7°C° 0 mm 4 mps 756 mmHg 64%
    02:00 +6°C° 0 mm 4 mps 756 mmHg 65%
    03:00 +6°C° 0 mm 4 mps 756 mmHg 67%
    04:00 +6°C° 0 mm 4 mps 756 mmHg 69%
    05:00 +5°C° 0 mm 4 mps 756 mmHg 71%
    06:00 +7°C° 0 mm 5 mps 756 mmHg 66%
    07:00 +8°C° 0 mm 5 mps 756 mmHg 61%
    08:00 +10°C° 0 mm 6 mps 756 mmHg 56%
    09:00 +11°C° 0 mm 6 mps 756 mmHg 52%
    10:00 +12°C° 0 mm 7 mps 756 mmHg 48%
    11:00 +15°C° 0 mm 7 mps 756 mmHg 44%
    12:00 +15°C° 0 mm 7 mps 756 mmHg 42%
    13:00 +16°C° 0 mm 7 mps 755 mmHg 41%
    14:00 +17°C° 0 mm 6 mps 755 mmHg 40%
    15:00 +17°C° 0 mm 6 mps 755 mmHg 42%
    16:00 +16°C° 0 mm 6 mps 755 mmHg 43%
    17:00 +16°C° 0 mm 5 mps 754 mmHg 44%
    18:00 +15°C° 0 mm 5 mps 754 mmHg 49%
    19:00 +13°C° 0 mm 4 mps 754 mmHg 54%
    20:00 +11°C° 0 mm 3 mps 754 mmHg 59%
    21:00 +11°C° 0 mm 4 mps 755 mmHg 61%
    22:00 +10°C° 0 mm 4 mps 755 mmHg 63%
    23:00 +8°C° 0 mm 4 mps 755 mmHg 64%
    Show more